User: anonymous   Login
Location: Mt. Chestnut Observatory
(40.9038°N, 79.9956°W)
Time: 23:40:28
(UTC-05:00)
Language:

Cosmos 2034 Rocket - Orbit

View from above orbital plane
View from above orbital plane
View from above satellite
View from above satellite

Ground track
Ground track

The orbit data is extracted from the following two-line orbital elements,

1 20150U 89059B   17018.67511019 -.00000159  00000-0 -17973-3 0  9993
2 20150  82.9382 204.9986 0028592 342.2026  63.8682 13.75627457379835
Epoch (UTC): 18 January 2017 16:12:09
Eccentricity: 0.0028592
inclination: 82.9382°
perigee height: 958 km
apogee height: 1000 km
right ascension of ascending node: 204.9986°
argument of perigee: 342.2026°
revolutions per day: 13.75627457
mean anomaly at epoch: 63.8682°
orbit number at epoch: 37983

The dashed part of the orbit path shows where the satellite is in the earth's shadow,  

DLR